TimeMST,TemperatureF,Dew PointF,Humidity,Sea Level PressureIn,VisibilityMPH,Wind Direction,Wind SpeedMPH,Gust SpeedMPH,PrecipitationIn,Events,Conditions,WindDirDegrees,DateUTC
12:03 AM,-5.8,-20.2,50,29.91,10.0,SSW,3.5,-,N/A,,Scattered Clouds,200,2012-12-10 07:03:00
12:23 AM,-5.8,-18.4,55,29.89,10.0,SSW,8.1,-,N/A,,Mostly Cloudy,210,2012-12-10 07:23:00
12:43 AM,-5.8,-18.4,55,29.89,10.0,SSW,15.0,-,N/A,,Scattered Clouds,210,2012-12-10 07:43:00
1:03 AM,-4.0,-18.4,50,29.88,10.0,WSW,10.4,17.3,N/A,,Clear,240,2012-12-10 08:03:00
1:23 AM,-0.4,-14.8,51,29.89,10.0,West,15.0,23.0,N/A,,Clear,260,2012-12-10 08:23:00
2:02 AM,1.4,-13.0,51,29.89,10.0,West,12.7,20.7,N/A,,Scattered Clouds,280,2012-12-10 09:02:00
2:23 AM,3.2,-11.2,51,29.89,10.0,NW,10.4,17.3,N/A,,Clear,310,2012-12-10 09:23:00
2:43 AM,3.2,-9.4,56,29.89,10.0,NW,5.8,-,N/A,,Clear,320,2012-12-10 09:43:00
3:03 AM,5.0,-5.8,61,29.89,10.0,NNW,5.8,-,N/A,,Clear,330,2012-12-10 10:03:00
3:23 AM,5.0,-4.0,66,29.89,10.0,West,8.1,-,N/A,,Clear,280,2012-12-10 10:23:00
3:43 AM,5.0,-4.0,66,29.89,10.0,Calm,Calm,-,N/A,,Clear,0,2012-12-10 10:43:00
4:03 AM,5.0,-4.0,66,29.89,10.0,NE,3.5,-,N/A,,Clear,50,2012-12-10 11:03:00
4:23 AM,5.0,-5.8,61,29.89,10.0,ENE,4.6,-,N/A,,Clear,70,2012-12-10 11:23:00
4:43 AM,5.0,-4.0,66,29.91,10.0,NE,10.4,-,N/A,,Clear,40,2012-12-10 11:43:00
5:03 AM,5.0,-4.0,66,29.91,10.0,NE,10.4,-,N/A,,Clear,40,2012-12-10 12:03:00
5:23 AM,3.2,-4.0,72,29.89,10.0,NNE,16.1,-,N/A,,Clear,30,2012-12-10 12:23:00
5:43 AM,3.2,-4.0,72,29.90,10.0,NE,18.4,24.2,N/A,,Clear,40,2012-12-10 12:43:00
6:03 AM,3.2,-4.0,72,29.90,10.0,NE,13.8,-,N/A,,Clear,50,2012-12-10 13:03:00
6:23 AM,1.4,-4.0,78,29.91,10.0,NE,16.1,-,N/A,,Clear,40,2012-12-10 13:23:00
6:42 AM,3.2,-2.2,78,29.92,10.0,NE,11.5,20.7,N/A,,Clear,40,2012-12-10 13:42:00
7:03 AM,3.2,-2.2,78,29.93,10.0,NE,10.4,13.8,N/A,,Clear,40,2012-12-10 14:03:00
7:23 AM,3.2,-2.2,78,29.93,10.0,NE,12.7,19.6,N/A,,Clear,40,2012-12-10 14:23:00
7:43 AM,3.2,-0.4,85,29.94,10.0,NNE,11.5,-,N/A,,Clear,30,2012-12-10 14:43:00
8:03 AM,3.2,-0.4,85,29.93,10.0,NNE,11.5,-,N/A,,Clear,30,2012-12-10 15:03:00
8:23 AM,5.0,-0.4,78,29.94,10.0,NNE,8.1,18.4,N/A,,Clear,30,2012-12-10 15:23:00
8:43 AM,8.6,-0.4,67,29.94,10.0,North,8.1,-,N/A,,Clear,10,2012-12-10 15:43:00
9:03 AM,10.4,1.4,67,29.94,10.0,North,8.1,19.6,N/A,,Clear,360,2012-12-10 16:03:00
9:23 AM,12.2,1.4,62,29.94,10.0,North,9.2,23.0,N/A,,Clear,10,2012-12-10 16:23:00
9:43 AM,12.2,1.4,62,29.94,10.0,NNW,10.4,17.3,N/A,,Clear,330,2012-12-10 16:43:00
10:03 AM,14.0,1.4,57,29.94,10.0,NNW,6.9,17.3,N/A,,Clear,330,2012-12-10 17:03:00
10:23 AM,14.0,3.2,62,29.94,10.0,NW,8.1,16.1,N/A,,Clear,320,2012-12-10 17:23:00
10:43 AM,15.8,3.2,58,29.94,10.0,WNW,5.8,-,N/A,,Clear,300,2012-12-10 17:43:00
11:03 AM,15.8,3.2,58,29.93,10.0,SW,8.1,-,N/A,,Clear,230,2012-12-10 18:03:00
11:23 AM,12.2,-0.4,57,29.91,10.0,SSW,10.4,-,N/A,,Clear,210,2012-12-10 18:23:00
11:43 AM,10.4,-4.0,52,29.91,10.0,SW,16.1,-,N/A,,Scattered Clouds,220,2012-12-10 18:43:00
12:03 PM,8.6,-5.8,52,29.90,10.0,SSW,17.3,21.9,N/A,,Mostly Cloudy,210,2012-12-10 19:03:00
12:23 PM,8.6,-5.8,52,29.89,10.0,SSW,17.3,23.0,N/A,,Overcast,210,2012-12-10 19:23:00
12:43 PM,8.6,-4.0,57,29.89,10.0,SW,17.3,24.2,N/A,,Overcast,220,2012-12-10 19:43:00
1:03 PM,8.6,-4.0,57,29.87,10.0,SSW,15.0,23.0,N/A,,Overcast,210,2012-12-10 20:03:00
1:23 PM,8.6,-4.0,57,29.87,7.0,SSW,11.5,20.7,N/A,,Overcast,210,2012-12-10 20:23:00
1:43 PM,8.6,-0.4,67,29.87,1.8,SW,15.0,18.4,N/A,Snow,Light Snow,230,2012-12-10 20:43:00
2:03 PM,6.8,1.4,79,29.86,1.0,SSW,17.3,-,N/A,Snow,Light Snow,210,2012-12-10 21:03:00
2:23 PM,5.0,1.4,85,29.86,1.0,SW,11.5,17.3,N/A,Snow,Light Snow,220,2012-12-10 21:23:00
2:43 PM,5.0,1.4,85,29.86,0.5,SW,12.7,-,N/A,Snow,Light Snow,220,2012-12-10 21:43:00
3:03 PM,5.0,1.4,85,29.86,1.0,SW,10.4,-,N/A,Snow,Light Snow,220,2012-12-10 22:03:00
3:23 PM,5.0,1.4,85,29.86,2.0,SSW,9.2,-,N/A,Snow,Light Snow,210,2012-12-10 22:23:00
3:43 PM,3.2,1.4,92,29.86,1.5,SSW,13.8,-,N/A,Snow,Light Snow,210,2012-12-10 22:43:00
4:03 PM,3.2,-0.4,85,29.86,0.8,SW,11.5,18.4,N/A,Snow,Light Snow,230,2012-12-10 23:03:00
4:23 PM,3.2,-0.4,85,29.86,0.8,SW,15.0,-,N/A,Snow,Light Snow,230,2012-12-10 23:23:00
4:43 PM,3.2,-0.4,85,29.86,0.5,SSW,11.5,-,N/A,Snow,Light Snow,210,2012-12-10 23:43:00
5:03 PM,1.4,-0.4,92,29.85,0.5,SSW,10.4,-,N/A,Snow,Light Snow,210,2012-12-11 00:03:00
5:23 PM,1.4,-0.4,92,29.85,1.5,SW,9.2,-,N/A,Snow,Light Snow,230,2012-12-11 00:23:00
5:43 PM,1.4,-0.4,92,29.85,4.0,SW,9.2,-,N/A,Snow,Light Snow,220,2012-12-11 00:43:00
6:03 PM,1.4,-2.2,85,29.86,10.0,WSW,6.9,-,N/A,,Mostly Cloudy,240,2012-12-11 01:03:00
6:23 PM,3.2,-0.4,85,29.86,4.0,Calm,Calm,-,N/A,Snow,Light Snow,0,2012-12-11 01:23:00
6:43 PM,3.2,1.4,92,29.86,7.0,West,10.4,-,N/A,,Overcast,280,2012-12-11 01:43:00
7:03 PM,1.4,-0.4,92,29.86,10.0,SW,3.5,-,N/A,Snow,Light Snow,230,2012-12-11 02:03:00
7:23 PM,3.2,1.4,92,29.86,3.0,WSW,4.6,-,N/A,Snow,Light Snow,240,2012-12-11 02:23:00
8:03 PM,3.2,1.4,92,29.86,3.0,WSW,9.2,-,N/A,Snow,Light Snow,250,2012-12-11 03:03:00
8:23 PM,3.2,1.4,92,29.86,5.0,WNW,4.6,-,N/A,Snow,Light Snow,300,2012-12-11 03:23:00
8:43 PM,3.2,1.4,92,29.86,7.0,SW,9.2,-,N/A,Snow,Light Snow,220,2012-12-11 03:43:00
9:03 PM,3.2,1.4,92,29.85,5.0,SW,8.1,16.1,N/A,Snow,Light Snow,220,2012-12-11 04:03:00
9:23 PM,3.2,-0.4,85,29.85,2.5,SSW,9.2,-,N/A,Snow,Light Snow,210,2012-12-11 04:23:00
9:43 PM,1.4,-0.4,92,29.85,4.0,SSW,9.2,18.4,N/A,Snow,Light Snow,210,2012-12-11 04:43:00
10:03 PM,3.2,-0.4,85,29.86,1.8,North,4.6,-,N/A,Snow,Light Snow,10,2012-12-11 05:03:00
10:23 PM,3.2,1.4,92,29.86,1.5,NNE,8.1,-,N/A,Snow,Light Snow,20,2012-12-11 05:23:00
10:43 PM,3.2,-0.4,85,29.86,4.0,NW,6.9,16.1,N/A,Snow,Light Snow,310,2012-12-11 05:43:00
11:03 PM,1.4,-0.4,92,29.86,4.0,North,6.9,16.1,N/A,Snow,Light Snow,360,2012-12-11 06:03:00
11:23 PM,1.4,-0.4,92,29.86,7.0,NW,8.1,18.4,N/A,,Overcast,310,2012-12-11 06:23:00
11:43 PM,1.4,-2.2,85,29.87,7.0,North,9.2,19.6,N/A,,Overcast,360,2012-12-11 06:43:00